Location: Newark
(7.0858°N, 171.3717°E)
Time: 14:40:45
(UTC+00:00)

Vanguard 3 - Visible Passes

Search period start: 26 November 2020 00:00
Search period end: 06 December 2020 00:00
Orbit: 508 x 3262 km, 33.3° (Epoch: 25 November)

Date Brightness Start Highest point End Pass type
(mag) Time Alt. Az. Time Alt. Az. Time Alt. Az.
26 Nov 8.0 07:45:14 10° W 07:48:46 22° NW 07:49:28 21° NNW visible
26 Nov 10.3 14:35:07 23° ENE 14:35:07 23° ENE 14:41:46 10° E visible
26 Nov 9.2 16:39:41 38° NW 16:45:30 81° NE 17:03:37 10° ESE visible
27 Nov 7.0 06:29:12 10° WSW 06:35:12 69° NW 06:39:11 10° NE visible
27 Nov 9.2 15:29:57 52° NE 15:30:01 52° NE 15:44:48 10° ESE visible
27 Nov 9.7 17:34:32 16° WNW 17:44:48 62° SW 18:03:28 10° SE visible
28 Nov 8.5 07:29:27 10° W 07:32:41 18° NW 07:34:38 13° N visible
28 Nov 10.4 14:20:14 20° ENE 14:20:14 20° ENE 14:24:59 10° E visible
28 Nov 8.8 16:24:48 52° NW 16:28:34 89° SW 16:45:52 10° SE visible
29 Nov 9.2 15:15:04 53° ENE 15:15:04 53° ENE 15:27:25 10° ESE visible
29 Nov 9.7 17:19:38 21° W 17:27:54 53° SSW 17:45:25 10° SE visible
30 Nov 8.8 07:13:45 10° WNW 07:16:34 14° NW 07:18:56 10° N visible
30 Nov 10.6 14:05:19 17° E 14:05:19 17° E 14:08:11 10° E visible
30 Nov 8.6 16:09:53 66° W 16:11:47 78° SW 16:28:01 10° SE visible
01 Dec 9.4 15:00:07 47° E 15:00:07 47° E 15:10:00 10° ESE visible
01 Dec 9.6 17:04:41 25° W 17:11:12 45° SSW 17:27:14 10° SE visible
02 Dec 9.1 06:58:10 10° WNW 07:00:25 12° NW 07:02:23 10° N visible
02 Dec 10.8 13:50:19 13° E 13:50:19 13° E 13:51:22 10° E visible
02 Dec 8.7 15:54:52 66° SW 15:55:09 66° SSW 16:10:06 10° SE visible
02 Dec 10.4 18:01:40 10° WSW 18:11:39 26° SSW 18:25:28 10° SSE visible
03 Dec 9.7 14:45:04 37° ESE 14:45:04 37° ESE 14:52:32 10° ESE visible
03 Dec 9.6 16:49:37 26° WSW 16:54:40 37° SSW 17:08:58 10° SSE visible
04 Dec 9.4 06:42:47 10° NW 06:44:17 11° NW 06:45:39 10° NNW visible
04 Dec 9.0 15:39:47 52° S 15:39:47 52° S 15:52:09 10° SE visible
04 Dec 10.4 17:46:40 10° WSW 17:55:16 21° SSW 18:06:51 10° SSE visible
05 Dec 10.1 14:29:55 27° SE 14:29:55 27° SE 14:35:04 10° SE visible
05 Dec 9.7 16:34:28 24° SW 16:38:18 29° SSW 16:50:35 10° SSE visible
